Wetterdaten: Woche 17.03.14 - 23.03.14 (KW12)
Datum Zeit Temp. A. Feuchte A. Luftdruck Regen Wind Richtung Sonnenschein ET UV Solar Taupunkt Windchill Windben
17.03.2014 00:00 8,4 C 83 % 1017,7 hPa 0,0 l/m 11,9 km/h (2 Bft) W 0,00 h 0,025 mm 0,0 UV-I 0 W/m 5,7 C 4,9 C 19,3 km/h (3 Bft)
17.03.2014 01:00 7,9 C 84 % 1017,5 hPa 0,0 l/m 14,3 km/h (3 Bft) W 0,00 h 0,025 mm 0,0 UV-I 0 W/m 5,5 C 3,0 C 21,5 km/h (4 Bft)
17.03.2014 02:00 7,6 C 86 % 1017,5 hPa 0,0 l/m 13,6 km/h (3 Bft) W 0,00 h 0,025 mm 0,0 UV-I 0 W/m 5,3 C 3,0 C 20,6 km/h (4 Bft)
17.03.2014 03:00 7,4 C 86 % 1017,0 hPa 0,0 l/m 13,4 km/h (3 Bft) W 0,00 h 0,025 mm 0,0 UV-I 0 W/m 5,2 C 2,9 C 20,5 km/h (4 Bft)
17.03.2014 04:00 7,4 C 85 % 1017,4 hPa 0,0 l/m 13,3 km/h (3 Bft) W 0,00 h 0,000 mm 0,0 UV-I 0 W/m 5,1 C 3,0 C 21,0 km/h (4 Bft)
17.03.2014 05:00 7,6 C 84 % 1018,0 hPa 0,0 l/m 14,8 km/h (3 Bft) W-NW 0,00 h 0,025 mm 0,0 UV-I 0 W/m 5,1 C 2,4 C 21,2 km/h (4 Bft)
17.03.2014 06:00 7,3 C 85 % 1018,2 hPa 0,0 l/m 9,8 km/h (2 Bft) W 0,00 h 0,025 mm 0,0 UV-I 5 W/m 4,9 C 4,8 C 14,5 km/h (3 Bft)
17.03.2014 07:00 7,2 C 85 % 1018,6 hPa 0,0 l/m 9,9 km/h (2 Bft) W-SW 0,00 h 0,025 mm 0,0 UV-I 18 W/m 4,9 C 4,7 C 15,4 km/h (3 Bft)
17.03.2014 08:00 7,8 C 83 % 1018,7 hPa 0,0 l/m 12,2 km/h (3 Bft) W 0,48 h 0,025 mm 0,5 UV-I 50 W/m 5,0 C 4,0 C 18,2 km/h (3 Bft)
17.03.2014 09:00 8,7 C 80 % 1018,5 hPa 0,0 l/m 12,2 km/h (3 Bft) W 1,00 h 0,051 mm 1,1 UV-I 128 W/m 5,5 C 5,1 C 19,2 km/h (3 Bft)
17.03.2014 10:00 9,7 C 77 % 1018,4 hPa 0,0 l/m 16,3 km/h (3 Bft) W 1,00 h 0,076 mm 1,6 UV-I 179 W/m 6,0 C 4,4 C 25,3 km/h (4 Bft)
17.03.2014 11:00 10,7 C 73 % 1018,3 hPa 0,0 l/m 16,6 km/h (3 Bft) W 1,00 h 0,127 mm 1,8 UV-I 198 W/m 6,1 C 5,4 C 25,0 km/h (4 Bft)
17.03.2014 12:00 11,0 C 69 % 1018,4 hPa 0,0 l/m 19,1 km/h (3 Bft) W 1,00 h 0,152 mm 2,2 UV-I 226 W/m 5,5 C 5,1 C 29,2 km/h (5 Bft)
17.03.2014 13:00 11,9 C 62 % 1018,1 hPa 0,0 l/m 18,9 km/h (3 Bft) W 1,00 h 0,178 mm 2,5 UV-I 331 W/m 4,7 C 6,2 C 29,3 km/h (5 Bft)
17.03.2014 14:00 11,7 C 63 % 1017,8 hPa 0,0 l/m 16,3 km/h (3 Bft) W 1,00 h 0,229 mm 1,7 UV-I 186 W/m 4,7 C 6,8 C 25,3 km/h (4 Bft)
17.03.2014 15:00 12,1 C 62 % 1017,7 hPa 0,0 l/m 14,7 km/h (3 Bft) W 1,00 h 0,152 mm 1,0 UV-I 238 W/m 5,0 C 7,9 C 22,8 km/h (4 Bft)
17.03.2014 16:00 12,0 C 61 % 1017,7 hPa 0,0 l/m 12,9 km/h (3 Bft) W 0,88 h 0,178 mm 0,7 UV-I 131 W/m 4,7 C 8,6 C 19,5 km/h (3 Bft)
17.03.2014 17:00 11,1 C 64 % 1017,9 hPa 0,0 l/m 10,6 km/h (2 Bft) W-NW 0,02 h 0,127 mm 0,0 UV-I 24 W/m 4,5 C 8,6 C 15,3 km/h (3 Bft)
17.03.2014 18:00 10,4 C 67 % 1018,5 hPa 0,0 l/m 9,0 km/h (2 Bft) W 0,00 h 0,051 mm 0,0 UV-I 5 W/m 4,6 C 8,7 C 13,6 km/h (3 Bft)
17.03.2014 19:00 10,0 C 69 % 1019,0 hPa 0,0 l/m 9,1 km/h (2 Bft) W-NW 0,00 h 0,025 mm 0,0 UV-I 0 W/m 4,6 C 8,1 C 13,3 km/h (3 Bft)
17.03.2014 20:00 9,5 C 70 % 1019,1 hPa 0,0 l/m 8,9 km/h (2 Bft) NW 0,00 h 0,051 mm 0,0 UV-I 0 W/m 4,4 C 7,8 C 12,8 km/h (3 Bft)
17.03.2014 21:00 9,0 C 71 % 1019,0 hPa 0,0 l/m 7,1 km/h (2 Bft) NW 0,00 h 0,051 mm 0,0 UV-I 0 W/m 4,0 C 8,3 C 10,2 km/h (2 Bft)
17.03.2014 22:00 8,5 C 71 % 1018,8 hPa 0,0 l/m 3,5 km/h (1 Bft) W 0,00 h 0,025 mm 0,0 UV-I 0 W/m 3,5 C 8,5 C 6,0 km/h (2 Bft)
17.03.2014 23:00 7,5 C 76 % 1018,7 hPa 0,0 l/m 0,7 km/h (0 Bft) S 0,00 h 0,025 mm 0,0 UV-I 0 W/m 3,5 C 7,5 C 1,8 km/h (1 Bft)
18.03.2014 00:00 7,4 C 78 % 1018,7 hPa 0,0 l/m 1,0 km/h (0 Bft) W-SW 0,00 h 0,025 mm 0,0 UV-I 0 W/m 3,7 C 7,4 C 2,3 km/h (1 Bft)
18.03.2014 01:00 7,2 C 79 % 1018,5 hPa 0,0 l/m 0,0 km/h (0 Bft) W-SW 0,00 h 0,025 mm 0,0 UV-I 0 W/m 3,8 C 7,2 C 0,1 km/h (0 Bft)
18.03.2014 02:00 7,2 C 79 % 1018,0 hPa 0,0 l/m 0,9 km/h (0 Bft) W 0,00 h 0,025 mm 0,0 UV-I 0 W/m 3,7 C 7,2 C 2,1 km/h (1 Bft)
18.03.2014 03:00 6,5 C 82 % 1017,8 hPa 0,0 l/m 0,7 km/h (0 Bft) SW 0,00 h 0,025 mm 0,0 UV-I 0 W/m 3,6 C 6,5 C 2,0 km/h (1 Bft)
18.03.2014 04:00 6,5 C 84 % 1017,7 hPa 0,0 l/m 3,5 km/h (1 Bft) SW 0,00 h 0,000 mm 0,0 UV-I 0 W/m 3,9 C 6,5 C 6,5 km/h (2 Bft)
18.03.2014 05:00 6,6 C 82 % 1017,4 hPa 0,0 l/m 1,7 km/h (1 Bft) W-SW 0,00 h 0,025 mm 0,0 UV-I 0 W/m 3,8 C 6,6 C 3,6 km/h (1 Bft)
18.03.2014 06:00 6,3 C 84 % 1017,0 hPa 0,0 l/m 1,9 km/h (1 Bft) S-SW 0,00 h 0,000 mm 0,0 UV-I 14 W/m 3,8 C 6,3 C 3,6 km/h (1 Bft)
18.03.2014 07:00 6,6 C 85 % 1016,8 hPa 0,0 l/m 2,4 km/h (1 Bft) S 0,45 h 0,000 mm 0,5 UV-I 52 W/m 4,3 C 6,6 C 4,1 km/h (1 Bft)
18.03.2014 08:00 7,6 C 82 % 1016,6 hPa 0,0 l/m 3,6 km/h (1 Bft) SW 1,00 h 0,025 mm 0,8 UV-I 142 W/m 4,8 C 7,6 C 5,7 km/h (1 Bft)
18.03.2014 09:00 9,1 C 77 % 1016,5 hPa 0,0 l/m 4,8 km/h (1 Bft) S-SW 1,00 h 0,076 mm 1,3 UV-I 212 W/m 5,2 C 8,9 C 8,0 km/h (2 Bft)
18.03.2014 10:00 9,8 C 74 % 1016,0 hPa 0,0 l/m 6,9 km/h (2 Bft) W-SW 1,00 h 0,102 mm 1,7 UV-I 235 W/m 5,4 C 9,1 C 10,8 km/h (2 Bft)
18.03.2014 11:00 10,1 C 73 % 1015,7 hPa 0,0 l/m 8,2 km/h (2 Bft) SW 1,00 h 0,127 mm 1,7 UV-I 218 W/m 5,5 C 8,8 C 13,1 km/h (3 Bft)
18.03.2014 12:00 10,5 C 73 % 1015,3 hPa 0,0 l/m 8,4 km/h (2 Bft) SW 1,00 h 0,127 mm 1,4 UV-I 168 W/m 5,9 C 9,1 C 12,9 km/h (3 Bft)
18.03.2014 13:00 11,2 C 69 % 1014,6 hPa 0,0 l/m 7,7 km/h (2 Bft) SW 1,00 h 0,102 mm 1,9 UV-I 228 W/m 5,8 C 10,2 C 11,6 km/h (2 Bft)
18.03.2014 14:00 11,9 C 66 % 1014,0 hPa 0,0 l/m 4,9 km/h (1 Bft) W-SW 1,00 h 0,127 mm 1,1 UV-I 171 W/m 5,7 C 11,8 C 7,4 km/h (2 Bft)
18.03.2014 15:00 12,3 C 63 % 1013,4 hPa 0,0 l/m 5,2 km/h (1 Bft) W-SW 1,00 h 0,102 mm 0,6 UV-I 102 W/m 5,4 C 11,7 C 8,1 km/h (2 Bft)
18.03.2014 16:00 12,1 C 61 % 1013,3 hPa 0,0 l/m 8,7 km/h (2 Bft) W-SW 0,55 h 0,076 mm 0,0 UV-I 48 W/m 4,8 C 10,7 C 13,0 km/h (3 Bft)
18.03.2014 17:00 11,5 C 68 % 1013,2 hPa 0,2 l/m 6,9 km/h (2 Bft) SW 0,00 h 0,076 mm 0,0 UV-I 13 W/m 5,7 C 10,8 C 10,8 km/h (2 Bft)
18.03.2014 18:00 9,8 C 81 % 1012,8 hPa 0,0 l/m 7,7 km/h (2 Bft) SW 0,00 h 0,025 mm 0,0 UV-I 6 W/m 6,6 C 8,8 C 11,1 km/h (2 Bft)
18.03.2014 19:00 9,5 C 83 % 1013,3 hPa 0,0 l/m 8,4 km/h (2 Bft) W-SW 0,00 h 0,025 mm 0,0 UV-I 0 W/m 6,7 C 8,1 C 12,5 km/h (3 Bft)
18.03.2014 20:00 8,9 C 86 % 1013,5 hPa 0,4 l/m 8,0 km/h (2 Bft) W 0,00 h 0,025 mm 0,0 UV-I 0 W/m 6,6 C 7,5 C 12,3 km/h (3 Bft)
18.03.2014 21:00 8,0 C 88 % 1012,8 hPa 0,0 l/m 3,3 km/h (1 Bft) S 0,00 h 0,025 mm 0,0 UV-I 0 W/m 6,2 C 8,0 C 4,9 km/h (1 Bft)
18.03.2014 22:00 7,7 C 88 % 1012,8 hPa 0,0 l/m 4,3 km/h (1 Bft) SW 0,00 h 0,000 mm 0,0 UV-I 0 W/m 5,8 C 7,5 C 6,9 km/h (2 Bft)
18.03.2014 23:00 8,1 C 84 % 1013,5 hPa 0,0 l/m 10,7 km/h (2 Bft) W 0,00 h 0,000 mm 0,0 UV-I 0 W/m 5,6 C 5,2 C 16,1 km/h (3 Bft)
19.03.2014 00:00 7,9 C 84 % 1013,9 hPa 0,0 l/m 9,1 km/h (2 Bft) W 0,00 h 0,025 mm 0,0 UV-I 0 W/m 5,4 C 6,0 C 13,0 km/h (3 Bft)
19.03.2014 01:00 7,6 C 83 % 1014,5 hPa 0,0 l/m 11,7 km/h (2 Bft) W 0,00 h 0,025 mm 0,0 UV-I 0 W/m 4,9 C 4,1 C 17,7 km/h (3 Bft)
19.03.2014 02:00 7,2 C 81 % 1014,8 hPa 0,0 l/m 13,8 km/h (3 Bft) W 0,00 h 0,025 mm 0,0 UV-I 0 W/m 4,2 C 2,4 C 20,9 km/h (4 Bft)
19.03.2014 03:00 7,1 C 80 % 1015,1 hPa 0,0 l/m 12,7 km/h (3 Bft) W-SW 0,00 h 0,025 mm 0,0 UV-I 0 W/m 3,9 C 2,9 C 19,7 km/h (3 Bft)
19.03.2014 04:00 6,8 C 82 % 1015,6 hPa 0,0 l/m 12,5 km/h (3 Bft) W 0,00 h 0,000 mm 0,0 UV-I 0 W/m 3,9 C 2,7 C 18,7 km/h (3 Bft)
19.03.2014 05:00 6,1 C 86 % 1016,7 hPa 0,4 l/m 15,6 km/h (3 Bft) W 0,00 h 0,025 mm 0,0 UV-I 0 W/m 4,0 C 0,3 C 24,2 km/h (4 Bft)
19.03.2014 06:00 5,9 C 89 % 1017,6 hPa 0,0 l/m 11,1 km/h (2 Bft) W 0,00 h 0,025 mm 0,0 UV-I 0 W/m 4,2 C 2,5 C 16,7 km/h (3 Bft)
19.03.2014 07:00 6,5 C 87 % 1018,8 hPa 0,0 l/m 11,8 km/h (2 Bft) W 0,15 h 0,000 mm 0,0 UV-I 29 W/m 4,4 C 2,7 C 17,9 km/h (3 Bft)
19.03.2014 08:00 6,4 C 85 % 1019,9 hPa 0,0 l/m 12,1 km/h (2 Bft) W 0,83 h 0,025 mm 0,5 UV-I 79 W/m 4,1 C 2,5 C 18,3 km/h (3 Bft)
19.03.2014 09:00 6,0 C 90 % 1020,7 hPa 0,2 l/m 10,6 km/h (2 Bft) W-NW 0,90 h 0,051 mm 0,7 UV-I 91 W/m 4,4 C 2,9 C 16,5 km/h (3 Bft)
19.03.2014 10:00 7,0 C 88 % 1021,2 hPa 0,2 l/m 11,3 km/h (2 Bft) W 1,00 h 0,051 mm 1,4 UV-I 187 W/m 5,1 C 3,6 C 17,7 km/h (3 Bft)
19.03.2014 11:00 7,8 C 85 % 1021,5 hPa 0,0 l/m 14,8 km/h (3 Bft) W 1,00 h 0,102 mm 1,9 UV-I 215 W/m 5,4 C 2,8 C 22,8 km/h (4 Bft)
19.03.2014 12:00 8,2 C 84 % 1022,2 hPa 0,0 l/m 13,7 km/h (3 Bft) W 1,00 h 0,127 mm 1,5 UV-I 173 W/m 5,7 C 3,8 C 20,8 km/h (4 Bft)
19.03.2014 13:00 7,4 C 88 % 1022,5 hPa 0,2 l/m 14,4 km/h (3 Bft) W 0,98 h 0,102 mm 0,9 UV-I 101 W/m 5,5 C 2,5 C 22,2 km/h (4 Bft)
19.03.2014 14:00 7,7 C 86 % 1022,9 hPa 0,0 l/m 11,7 km/h (2 Bft) W 0,65 h 0,051 mm 0,7 UV-I 68 W/m 5,5 C 4,2 C 17,9 km/h (3 Bft)
19.03.2014 15:00 7,9 C 83 % 1023,0 hPa 0,0 l/m 12,7 km/h (3 Bft) W 0,83 h 0,051 mm 0,6 UV-I 61 W/m 5,2 C 3,9 C 18,6 km/h (3 Bft)
19.03.2014 16:00 8,4 C 80 % 1022,9 hPa 0,0 l/m 8,1 km/h (2 Bft) W 0,52 h 0,051 mm 0,0 UV-I 53 W/m 5,2 C 7,0 C 12,6 km/h (3 Bft)
19.03.2014 17:00 8,7 C 78 % 1023,0 hPa 0,0 l/m 7,3 km/h (2 Bft) W-SW 0,50 h 0,051 mm 0,0 UV-I 51 W/m 5,1 C 7,5 C 11,4 km/h (2 Bft)
19.03.2014 18:00 8,3 C 80 % 1023,9 hPa 0,0 l/m 5,7 km/h (1 Bft) SW 0,00 h 0,051 mm 0,0 UV-I 8 W/m 5,0 C 8,1 C 9,0 km/h (2 Bft)
19.03.2014 19:00 8,4 C 79 % 1024,5 hPa 0,0 l/m 6,9 km/h (2 Bft) SW 0,00 h 0,025 mm 0,0 UV-I 0 W/m 4,9 C 7,7 C 11,5 km/h (2 Bft)
19.03.2014 20:00 8,1 C 78 % 1024,8 hPa 0,0 l/m 5,9 km/h (2 Bft) SW 0,00 h 0,025 mm 0,0 UV-I 0 W/m 4,5 C 7,7 C 9,5 km/h (2 Bft)
19.03.2014 21:00 7,1 C 82 % 1025,0 hPa 0,0 l/m 3,2 km/h (1 Bft) S 0,00 h 0,025 mm 0,0 UV-I 0 W/m 4,1 C 7,0 C 5,3 km/h (1 Bft)
19.03.2014 22:00 6,7 C 83 % 1025,1 hPa 0,0 l/m 3,7 km/h (1 Bft) S 0,00 h 0,025 mm 0,0 UV-I 0 W/m 4,0 C 6,6 C 6,0 km/h (2 Bft)
19.03.2014 23:00 6,4 C 83 % 1025,1 hPa 0,0 l/m 2,0 km/h (1 Bft) S-SO 0,00 h 0,025 mm 0,0 UV-I 0 W/m 3,8 C 6,4 C 3,5 km/h (1 Bft)
20.03.2014 00:00 5,4 C 87 % 1024,9 hPa 0,0 l/m 2,6 km/h (1 Bft) SO 0,00 h 0,000 mm 0,0 UV-I 0 W/m 3,3 C 5,4 C 4,2 km/h (1 Bft)
20.03.2014 01:00 5,3 C 87 % 1024,5 hPa 0,0 l/m 4,3 km/h (1 Bft) S 0,00 h 0,000 mm 0,0 UV-I 0 W/m 3,4 C 5,3 C 5,9 km/h (2 Bft)
20.03.2014 02:00 4,9 C 87 % 1024,2 hPa 0,0 l/m 3,8 km/h (1 Bft) S 0,00 h 0,000 mm 0,0 UV-I 0 W/m 3,0 C 4,9 C 5,4 km/h (1 Bft)
20.03.2014 03:00 4,7 C 89 % 1024,0 hPa 0,0 l/m 3,8 km/h (1 Bft) S 0,00 h 0,000 mm 0,0 UV-I 0 W/m 3,0 C 4,7 C 5,6 km/h (1 Bft)
20.03.2014 04:00 4,5 C 89 % 1024,0 hPa 0,0 l/m 2,7 km/h (1 Bft) S 0,00 h 0,000 mm 0,0 UV-I 0 W/m 2,8 C 4,5 C 4,3 km/h (1 Bft)
20.03.2014 05:00 4,0 C 89 % 1023,7 hPa 0,0 l/m 2,6 km/h (1 Bft) SO 0,00 h 0,000 mm 0,0 UV-I 0 W/m 2,4 C 4,0 C 4,0 km/h (1 Bft)
20.03.2014 06:00 3,2 C 91 % 1023,8 hPa 0,0 l/m 3,4 km/h (1 Bft) SO 0,00 h 0,000 mm 0,0 UV-I 19 W/m 1,9 C 3,2 C 5,0 km/h (1 Bft)
20.03.2014 07:00 4,1 C 89 % 1024,0 hPa 0,0 l/m 2,6 km/h (1 Bft) S-SO 0,75 h 0,000 mm 0,0 UV-I 81 W/m 2,5 C 4,1 C 3,9 km/h (1 Bft)
20.03.2014 08:00 8,4 C 78 % 1024,0 hPa 0,0 l/m 6,2 km/h (2 Bft) S 1,00 h 0,025 mm 1,1 UV-I 277 W/m 4,8 C 8,0 C 9,3 km/h (2 Bft)
20.03.2014 09:00 10,4 C 70 % 1024,1 hPa 0,0 l/m 7,4 km/h (2 Bft) S 1,00 h 0,203 mm 1,9 UV-I 452 W/m 5,2 C 9,5 C 11,6 km/h (2 Bft)
20.03.2014 10:00 11,8 C 65 % 1023,8 hPa 0,0 l/m 6,8 km/h (2 Bft) S-SW 1,00 h 0,229 mm 2,3 UV-I 360 W/m 5,5 C 11,2 C 10,7 km/h (2 Bft)
20.03.2014 11:00 13,7 C 56 % 1022,9 hPa 0,0 l/m 6,4 km/h (2 Bft) S 1,00 h 0,203 mm 2,9 UV-I 524 W/m 5,2 C 13,2 C 9,6 km/h (2 Bft)
20.03.2014 12:00 15,4 C 46 % 1021,6 hPa 0,0 l/m 7,2 km/h (2 Bft) S 1,00 h 0,279 mm 2,5 UV-I 280 W/m 3,7 C 14,6 C 10,5 km/h (2 Bft)
20.03.2014 13:00 17,1 C 43 % 1020,1 hPa 0,0 l/m 4,0 km/h (1 Bft) W-SW 1,00 h 0,203 mm 2,8 UV-I 466 W/m 4,3 C 17,0 C 7,1 km/h (2 Bft)
20.03.2014 14:00 18,6 C 42 % 1019,1 hPa 0,0 l/m 5,5 km/h (1 Bft) W-SW 1,00 h 0,305 mm 2,4 UV-I 576 W/m 5,5 C 18,3 C 8,9 km/h (2 Bft)
20.03.2014 15:00 19,3 C 29 % 1018,1 hPa 0,0 l/m 10,4 km/h (2 Bft) S-SO 1,00 h 0,356 mm 1,5 UV-I 451 W/m 0,6 C 17,8 C 15,5 km/h (3 Bft)
20.03.2014 16:00 18,7 C 29 % 1017,6 hPa 0,0 l/m 11,5 km/h (2 Bft) S 1,00 h 0,356 mm 0,8 UV-I 285 W/m 0,5 C 16,8 C 16,9 km/h (3 Bft)
20.03.2014 17:00 17,5 C 37 % 1017,1 hPa 0,0 l/m 5,7 km/h (1 Bft) S 0,58 h 0,279 mm 0,0 UV-I 73 W/m 2,6 C 17,2 C 8,4 km/h (2 Bft)
20.03.2014 18:00 15,5 C 42 % 1016,4 hPa 0,0 l/m 4,1 km/h (1 Bft) SO 0,00 h 0,102 mm 0,0 UV-I 7 W/m 2,7 C 15,5 C 6,2 km/h (2 Bft)
20.03.2014 19:00 12,0 C 57 % 1016,4 hPa 0,0 l/m 0,8 km/h (0 Bft) O 0,00 h 0,051 mm 0,0 UV-I 0 W/m 3,7 C 12,0 C 1,8 km/h (1 Bft)
20.03.2014 20:00 8,8 C 70 % 1016,0 hPa 0,0 l/m 1,3 km/h (1 Bft) O-SO 0,00 h 0,025 mm 0,0 UV-I 0 W/m 3,6 C 8,8 C 2,7 km/h (1 Bft)
20.03.2014 21:00 7,5 C 75 % 1015,8 hPa 0,0 l/m 0,7 km/h (0 Bft) N-NO 0,00 h 0,025 mm 0,0 UV-I 0 W/m 3,3 C 7,5 C 1,4 km/h (1 Bft)
20.03.2014 22:00 6,0 C 80 % 1015,4 hPa 0,0 l/m 0,3 km/h (0 Bft) N-NO 0,00 h 0,026 mm 0,0 UV-I 0 W/m 2,9 C 6,0 C 0,6 km/h (0 Bft)
20.03.2014 23:00 5,3 C 82 % 1015,0 hPa 0,0 l/m 3,5 km/h (1 Bft) N 0,00 h 0,000 mm 0,0 UV-I 0 W/m 2,5 C 5,3 C 5,3 km/h (1 Bft)
21.03.2014 00:00 5,1 C 81 % 1014,7 hPa 0,0 l/m 1,2 km/h (1 Bft) N-NW 0,00 h 0,025 mm 0,0 UV-I 0 W/m 2,2 C 5,1 C 1,8 km/h (1 Bft)
21.03.2014 01:00 3,8 C 86 % 1014,4 hPa 0,0 l/m 0,3 km/h (0 Bft) N-NW 0,00 h 0,000 mm 0,0 UV-I 0 W/m 1,6 C 3,8 C 0,9 km/h (0 Bft)
21.03.2014 02:00 3,1 C 87 % 1014,1 hPa 0,0 l/m 1,3 km/h (1 Bft) N-NW 0,00 h 0,000 mm 0,0 UV-I 0 W/m 1,3 C 3,1 C 2,4 km/h (1 Bft)
21.03.2014 03:00 2,7 C 88 % 1014,0 hPa 0,0 l/m 0,3 km/h (0 Bft) N-NW 0,00 h 0,000 mm 0,0 UV-I 0 W/m 0,9 C 2,7 C 0,7 km/h (0 Bft)
21.03.2014 04:00 2,1 C 89 % 1013,8 hPa 0,0 l/m 0,0 km/h (0 Bft) N-NW 0,00 h 0,000 mm 0,0 UV-I 0 W/m 0,5 C 2,1 C 0,3 km/h (0 Bft)
21.03.2014 05:00 1,6 C 90 % 1013,7 hPa 0,0 l/m 0,1 km/h (0 Bft) N-NW 0,00 h 0,000 mm 0,0 UV-I 0 W/m 0,2 C 1,6 C 0,5 km/h (0 Bft)
21.03.2014 06:00 1,2 C 92 % 1013,7 hPa 0,0 l/m 0,1 km/h (0 Bft) N-NW 0,00 h 0,000 mm 0,0 UV-I 15 W/m 0,0 C 1,2 C 0,5 km/h (0 Bft)
21.03.2014 07:00 3,5 C 88 % 1013,7 hPa 0,0 l/m 0,1 km/h (0 Bft) N-NW 0,75 h 0,000 mm 0,6 UV-I 117 W/m 1,7 C 3,5 C 0,5 km/h (0 Bft)
21.03.2014 08:00 10,4 C 67 % 1013,6 hPa 0,0 l/m 2,4 km/h (1 Bft) N-NW 1,00 h 0,051 mm 1,0 UV-I 324 W/m 4,4 C 10,4 C 4,3 km/h (1 Bft)
21.03.2014 09:00 14,7 C 50 % 1013,2 hPa 0,0 l/m 11,1 km/h (2 Bft) S-SW 1,00 h 0,152 mm 1,7 UV-I 420 W/m 4,4 C 12,4 C 17,7 km/h (3 Bft)
21.03.2014 10:00 15,7 C 48 % 1012,8 hPa 0,0 l/m 12,7 km/h (3 Bft) S 1,00 h 0,279 mm 2,3 UV-I 368 W/m 4,6 C 12,9 C 19,0 km/h (3 Bft)
21.03.2014 11:00 17,0 C 44 % 1012,2 hPa 0,0 l/m 12,4 km/h (3 Bft) S 1,00 h 0,279 mm 2,9 UV-I 467 W/m 4,7 C 14,5 C 19,2 km/h (3 Bft)
21.03.2014 12:00 18,7 C 36 % 1011,4 hPa 0,0 l/m 15,5 km/h (3 Bft) S 1,00 h 0,356 mm 2,6 UV-I 279 W/m 3,5 C 15,7 C 24,6 km/h (4 Bft)
21.03.2014 13:00 19,6 C 32 % 1010,4 hPa 0,0 l/m 17,6 km/h (3 Bft) S-SW 1,00 h 0,305 mm 2,6 UV-I 431 W/m 2,6 C 16,3 C 28,0 km/h (4 Bft)
21.03.2014 14:00 19,7 C 31 % 1009,7 hPa 0,0 l/m 17,7 km/h (3 Bft) SW 1,00 h 0,406 mm 2,1 UV-I 449 W/m 2,0 C 16,5 C 27,8 km/h (4 Bft)
21.03.2014 15:00 19,5 C 31 % 1009,1 hPa 0,0 l/m 14,5 km/h (3 Bft) S-SW 1,00 h 0,432 mm 1,3 UV-I 310 W/m 2,1 C 16,9 C 22,7 km/h (4 Bft)
21.03.2014 16:00 19,0 C 33 % 1008,8 hPa 0,0 l/m 9,8 km/h (2 Bft) SW 0,90 h 0,305 mm 0,8 UV-I 141 W/m 2,5 C 17,7 C 15,5 km/h (3 Bft)
21.03.2014 17:00 18,0 C 36 % 1009,2 hPa 0,0 l/m 10,4 km/h (2 Bft) W 0,82 h 0,178 mm 0,0 UV-I 68 W/m 2,7 C 16,4 C 15,9 km/h (3 Bft)
21.03.2014 18:00 16,1 C 45 % 1010,4 hPa 0,0 l/m 14,6 km/h (3 Bft) W 0,00 h 0,127 mm 0,0 UV-I 15 W/m 4,1 C 12,8 C 22,0 km/h (4 Bft)
21.03.2014 19:00 14,5 C 51 % 1011,0 hPa 0,0 l/m 11,3 km/h (2 Bft) W 0,00 h 0,102 mm 0,0 UV-I 0 W/m 4,4 C 12,2 C 17,3 km/h (3 Bft)
21.03.2014 20:00 13,5 C 55 % 1011,2 hPa 0,0 l/m 2,9 km/h (1 Bft) W 0,00 h 0,076 mm 0,0 UV-I 0 W/m 4,7 C 13,5 C 5,0 km/h (1 Bft)
21.03.2014 21:00 12,2 C 60 % 1011,2 hPa 0,0 l/m 2,1 km/h (1 Bft) SW 0,00 h 0,051 mm 0,0 UV-I 0 W/m 4,7 C 12,2 C 3,5 km/h (1 Bft)
21.03.2014 22:00 10,7 C 66 % 1010,9 hPa 0,0 l/m 1,6 km/h (1 Bft) S-SO 0,00 h 0,025 mm 0,0 UV-I 0 W/m 4,7 C 10,7 C 2,7 km/h (1 Bft)
21.03.2014 23:00 9,5 C 72 % 1010,6 hPa 0,0 l/m 1,8 km/h (1 Bft) SO 0,00 h 0,025 mm 0,0 UV-I 0 W/m 4,8 C 9,5 C 3,2 km/h (1 Bft)
22.03.2014 00:00 9,7 C 73 % 1010,3 hPa 0,0 l/m 1,6 km/h (1 Bft) S-SO 0,00 h 0,025 mm 0,0 UV-I 0 W/m 5,1 C 9,7 C 3,0 km/h (1 Bft)
22.03.2014 01:00 9,7 C 74 % 1009,8 hPa 0,0 l/m 1,5 km/h (1 Bft) SO 0,00 h 0,025 mm 0,0 UV-I 0 W/m 5,3 C 9,7 C 3,1 km/h (1 Bft)
22.03.2014 02:00 9,7 C 74 % 1009,2 hPa 0,0 l/m 1,6 km/h (1 Bft) O-SO 0,00 h 0,025 mm 0,0 UV-I 0 W/m 5,4 C 9,7 C 3,2 km/h (1 Bft)
22.03.2014 03:00 9,6 C 75 % 1008,6 hPa 0,0 l/m 1,9 km/h (1 Bft) O-SO 0,00 h 0,025 mm 0,0 UV-I 0 W/m 5,4 C 9,6 C 3,4 km/h (1 Bft)
22.03.2014 04:00 9,7 C 73 % 1008,1 hPa 0,0 l/m 3,2 km/h (1 Bft) S 0,00 h 0,000 mm 0,0 UV-I 0 W/m 5,0 C 9,6 C 5,2 km/h (1 Bft)
22.03.2014 05:00 8,9 C 75 % 1007,6 hPa 0,0 l/m 1,1 km/h (1 Bft) O-SO 0,00 h 0,025 mm 0,0 UV-I 0 W/m 4,7 C 8,9 C 2,4 km/h (1 Bft)
22.03.2014 06:00 7,5 C 80 % 1007,3 hPa 0,0 l/m 0,1 km/h (0 Bft) S-SO 0,00 h 0,025 mm 0,0 UV-I 16 W/m 4,4 C 7,5 C 0,5 km/h (0 Bft)
22.03.2014 07:00 7,9 C 82 % 1007,0 hPa 0,0 l/m 3,3 km/h (1 Bft) O-SO 0,33 h 0,000 mm 0,0 UV-I 40 W/m 5,0 C 7,9 C 5,3 km/h (1 Bft)
22.03.2014 08:00 10,3 C 71 % 1006,5 hPa 0,0 l/m 6,2 km/h (2 Bft) SO 0,98 h 0,025 mm 0,7 UV-I 86 W/m 5,3 C 9,9 C 9,3 km/h (2 Bft)
22.03.2014 09:00 12,1 C 63 % 1005,9 hPa 0,0 l/m 5,9 km/h (2 Bft) S-SO 1,00 h 0,076 mm 0,9 UV-I 163 W/m 5,3 C 11,7 C 9,1 km/h (2 Bft)
22.03.2014 10:00 13,2 C 59 % 1005,6 hPa 0,0 l/m 11,0 km/h (2 Bft) S 1,00 h 0,102 mm 1,7 UV-I 281 W/m 5,3 C 10,7 C 17,2 km/h (3 Bft)
22.03.2014 11:00 14,4 C 56 % 1004,8 hPa 0,0 l/m 8,7 km/h (2 Bft) SW 1,00 h 0,203 mm 2,1 UV-I 354 W/m 5,6 C 13,0 C 13,7 km/h (3 Bft)
22.03.2014 12:00 15,8 C 50 % 1003,9 hPa 0,0 l/m 12,3 km/h (3 Bft) S 1,00 h 0,229 mm 2,3 UV-I 341 W/m 5,5 C 13,2 C 19,3 km/h (3 Bft)
22.03.2014 13:00 13,3 C 66 % 1004,1 hPa 0,0 l/m 16,7 km/h (3 Bft) W 1,00 h 0,254 mm 1,6 UV-I 270 W/m 7,0 C 8,7 C 26,2 km/h (4 Bft)
22.03.2014 14:00 10,9 C 76 % 1004,4 hPa 0,0 l/m 12,1 km/h (2 Bft) W 0,77 h 0,203 mm 0,8 UV-I 101 W/m 6,8 C 7,6 C 19,0 km/h (3 Bft)
22.03.2014 15:00 10,2 C 77 % 1004,4 hPa 0,0 l/m 9,3 km/h (2 Bft) W-SW 0,77 h 0,076 mm 0,5 UV-I 67 W/m 6,4 C 8,2 C 14,2 km/h (3 Bft)
22.03.2014 16:00 9,5 C 79 % 1004,0 hPa 0,0 l/m 6,2 km/h (2 Bft) W-SW 0,10 h 0,051 mm 0,0 UV-I 32 W/m 6,1 C 8,9 C 9,4 km/h (2 Bft)
22.03.2014 17:00 8,6 C 86 % 1003,8 hPa 1,0 l/m 4,5 km/h (1 Bft) W-SW 0,00 h 0,025 mm 0,0 UV-I 13 W/m 6,4 C 8,4 C 7,0 km/h (2 Bft)
22.03.2014 18:00 7,9 C 92 % 1003,8 hPa 1,0 l/m 3,1 km/h (1 Bft) S 0,00 h 0,000 mm 0,0 UV-I 0 W/m 6,7 C 7,9 C 4,7 km/h (1 Bft)
22.03.2014 19:00 7,7 C 93 % 1003,9 hPa 0,6 l/m 4,7 km/h (1 Bft) S-SO 0,00 h 0,000 mm 0,0 UV-I 0 W/m 6,7 C 7,6 C 7,0 km/h (2 Bft)
22.03.2014 20:00 7,5 C 93 % 1004,0 hPa 0,6 l/m 8,7 km/h (2 Bft) S 0,00 h 0,000 mm 0,0 UV-I 0 W/m 6,4 C 5,8 C 12,6 km/h (3 Bft)
22.03.2014 21:00 7,2 C 92 % 1004,3 hPa 0,0 l/m 9,7 km/h (2 Bft) S 0,00 h 0,000 mm 0,0 UV-I 0 W/m 6,1 C 4,8 C 14,3 km/h (3 Bft)
22.03.2014 22:00 7,1 C 93 % 1004,3 hPa 0,2 l/m 8,1 km/h (2 Bft) S 0,00 h 0,000 mm 0,0 UV-I 0 W/m 6,0 C 5,7 C 11,9 km/h (2 Bft)
22.03.2014 23:00 6,9 C 92 % 1004,1 hPa 0,0 l/m 6,9 km/h (2 Bft) S-SW 0,00 h 0,000 mm 0,0 UV-I 0 W/m 5,8 C 6,3 C 10,9 km/h (2 Bft)
23.03.2014 00:00 6,9 C 92 % 1004,0 hPa 0,0 l/m 6,9 km/h (2 Bft) W-SW 0,00 h 0,000 mm 0,0 UV-I 0 W/m 5,7 C 6,1 C 11,1 km/h (2 Bft)
23.03.2014 01:00 6,7 C 92 % 1004,1 hPa 0,0 l/m 8,3 km/h (2 Bft) W-SW 0,00 h 0,000 mm 0,0 UV-I 0 W/m 5,4 C 5,1 C 12,9 km/h (3 Bft)
23.03.2014 02:00 6,0 C 90 % 1004,2 hPa 0,0 l/m 5,4 km/h (1 Bft) W-NW 0,00 h 0,000 mm 0,0 UV-I 0 W/m 4,5 C 5,0 C 8,9 km/h (2 Bft)
23.03.2014 03:00 5,7 C 91 % 1004,1 hPa 0,0 l/m 4,0 km/h (1 Bft) W-SW 0,00 h 0,000 mm 0,0 UV-I 0 W/m 4,3 C 5,7 C 6,4 km/h (2 Bft)
23.03.2014 04:00 5,1 C 91 % 1004,4 hPa 0,0 l/m 6,7 km/h (2 Bft) W-NW 0,00 h 0,000 mm 0,0 UV-I 0 W/m 3,8 C 4,3 C 10,2 km/h (2 Bft)
23.03.2014 05:00 4,5 C 90 % 1004,5 hPa 0,0 l/m 4,9 km/h (1 Bft) W-NW 0,00 h 0,000 mm 0,0 UV-I 0 W/m 3,0 C 4,4 C 7,8 km/h (2 Bft)
23.03.2014 06:00 4,2 C 89 % 1004,8 hPa 0,0 l/m 2,7 km/h (1 Bft) W-NW 0,00 h 0,000 mm 0,0 UV-I 12 W/m 2,6 C 4,2 C 4,7 km/h (1 Bft)
23.03.2014 07:00 4,1 C 91 % 1005,1 hPa 0,0 l/m 1,0 km/h (0 Bft) W-NW 0,37 h 0,000 mm 0,0 UV-I 44 W/m 2,8 C 4,1 C 2,1 km/h (1 Bft)
23.03.2014 08:00 4,6 C 89 % 1005,3 hPa 0,0 l/m 1,9 km/h (1 Bft) W-NW 1,00 h 0,025 mm 0,5 UV-I 99 W/m 3,0 C 4,6 C 3,5 km/h (1 Bft)
23.03.2014 09:00 5,3 C 85 % 1005,4 hPa 0,0 l/m 4,4 km/h (1 Bft) NW 1,00 h 0,051 mm 0,6 UV-I 124 W/m 2,9 C 5,2 C 6,8 km/h (2 Bft)
23.03.2014 10:00 5,4 C 81 % 1005,3 hPa 0,0 l/m 3,9 km/h (1 Bft) N 1,00 h 0,051 mm 0,7 UV-I 126 W/m 2,5 C 5,3 C 6,3 km/h (2 Bft)
23.03.2014 11:00 5,5 C 80 % 1005,3 hPa 0,0 l/m 1,8 km/h (1 Bft) N 1,00 h 0,051 mm 0,8 UV-I 122 W/m 2,3 C 5,5 C 3,5 km/h (1 Bft)
23.03.2014 12:00 5,9 C 74 % 1005,2 hPa 0,0 l/m 2,5 km/h (1 Bft) N 1,00 h 0,051 mm 1,0 UV-I 151 W/m 1,6 C 5,9 C 4,2 km/h (1 Bft)
23.03.2014 13:00 4,6 C 81 % 1005,4 hPa 1,2 l/m 5,3 km/h (1 Bft) N 0,65 h 0,076 mm 0,6 UV-I 67 W/m 1,5 C 3,7 C 8,7 km/h (2 Bft)
23.03.2014 14:00 3,2 C 91 % 1005,6 hPa 0,4 l/m 2,3 km/h (1 Bft) S 0,87 h 0,025 mm 0,6 UV-I 87 W/m 2,0 C 3,2 C 4,1 km/h (1 Bft)
23.03.2014 15:00 3,5 C 91 % 1005,8 hPa 0,2 l/m 1,6 km/h (1 Bft) SO 0,85 h 0,025 mm 0,5 UV-I 64 W/m 2,1 C 3,5 C 3,2 km/h (1 Bft)
23.03.2014 16:00 3,5 C 91 % 1006,1 hPa 0,0 l/m 3,4 km/h (1 Bft) SO 0,55 h 0,025 mm 0,0 UV-I 50 W/m 2,2 C 3,5 C 5,5 km/h (1 Bft)
23.03.2014 17:00 3,1 C 92 % 1006,7 hPa 1,4 l/m 3,3 km/h (1 Bft) W 0,00 h 0,025 mm 0,0 UV-I 11 W/m 2,0 C 3,1 C 5,3 km/h (1 Bft)
23.03.2014 18:00 2,0 C 92 % 1007,1 hPa 0,6 l/m 0,9 km/h (0 Bft) W-NW 0,00 h 0,000 mm 0,0 UV-I 0 W/m 0,9 C 2,0 C 1,9 km/h (1 Bft)
23.03.2014 19:00 1,8 C 94 % 1007,2 hPa 0,6 l/m 1,2 km/h (1 Bft) SO 0,00 h 0,000 mm 0,0 UV-I 0 W/m 0,9 C 1,8 C 2,1 km/h (1 Bft)
23.03.2014 20:00 1,9 C 95 % 1007,5 hPa 0,0 l/m 0,0 km/h (0 Bft) N 0,00 h 0,000 mm 0,0 UV-I 0 W/m 1,1 C 1,9 C 0,0 km/h (0 Bft)
23.03.2014 21:00 2,0 C 95 % 1007,8 hPa 0,2 l/m 0,4 km/h (0 Bft) SO 0,00 h 0,000 mm 0,0 UV-I 0 W/m 1,2 C 2,0 C 1,0 km/h (0 Bft)
23.03.2014 22:00 2,0 C 95 % 1007,9 hPa 0,2 l/m 1,2 km/h (1 Bft) N-NO 0,00 h 0,000 mm 0,0 UV-I 0 W/m 1,3 C 2,0 C 2,1 km/h (1 Bft)
23.03.2014 23:00 2,0 C 95 % 1007,6 hPa 0,0 l/m 1,6 km/h (1 Bft) W 0,00 h 0,000 mm 0,0 UV-I 0 W/m 1,3 C 2,0 C 3,0 km/h (1 Bft)
Min-Datum _ 19.03.14 20.03.14 22.03.14 - 17.03.14 - - - - - 20.03.14 19.03.14 17.03.14
_ Min-Zeit 06:55 15:35 12:58 - 22:41 - - - - - 15:39 05:10 23:22
Minimum _ 0,0 C 25 % 1003,5 hPa - 0,0 km/h (0 Bft) - - - - - -1,2 C -3,0 C 0,0 km/h (0 Bft)
Max-Datum _ 20.03.14 23.03.14 19.03.14 23.03.14 17.03.14 - 17.03.14 21.03.14 20.03.14 20.03.14 22.03.14 20.03.14 17.03.14
_ Max-Zeit 14:47 20:06 22:02 17:02 13:22 - 15:24 15:00 12:10 12:12 13:35 14:47 13:22
Maximum _ 20,3 C 95 % 1025,2 hPa 1,4 l/m 30,6 km/h
W (5 Bft)
- 0,07 h 0,432 mm 3,7 UV-I 703 W/m 7,9 C 20,3 C 46,7 km/h
W (6 Bft)
Durchschnitt _ 8,7 C 76 % 1014,1 hPa #9,8 l/m 6,8 km/h (2 Bft) W #62:47 h #11,491 mm 1,4 UV-I 164 W/m 4,2 C 7,3 C 10,6 km/h (2 Bft)